Time,TemperatureF,DewpointF,PressureIn,WindDirection,WindDirectionDegrees,WindSpeedMPH,WindSpeedGustMPH,Humidity,HourlyPrecipIn,Conditions,Clouds,dailyrainin,SolarRadiationWatts/m^2,SoftwareType,DateUTC
2013-07-18 00:02:00,71.0,70.0,-100.00,West,274,2.0,6.0,97,0.00,,,0.00,0.000000,,2013-07-18 04:02:00,
2013-07-18 00:32:00,71.0,71.0,-100.00,WSW,240,4.0,7.0,100,0.00,,,0.00,0.000000,,2013-07-18 04:32:00,
2013-07-18 00:43:00,71.0,71.0,-100.00,WSW,240,4.0,7.0,100,0.00,,,0.00,0.000000,,2013-07-18 04:43:00,
2013-07-18 00:52:00,71.0,71.0,-100.00,WSW,240,4.0,7.0,100,0.00,,,0.00,0.000000,,2013-07-18 04:52:00,
2013-07-18 01:02:00,71.0,71.0,-100.00,WSW,240,4.0,7.0,100,0.00,,,0.00,0.000000,,2013-07-18 05:02:00,
2013-07-18 01:43:00,71.0,71.0,-100.00,West,259,2.0,8.0,100,0.00,,,0.00,0.000000,,2013-07-18 05:43:00,
2013-07-18 01:52:00,71.0,71.0,-100.00,West,259,2.0,8.0,100,0.00,,,0.00,0.000000,,2013-07-18 05:52:00,
2013-07-18 02:01:00,71.0,71.0,-100.00,West,259,2.0,8.0,100,0.00,,,0.00,0.000000,,2013-07-18 06:01:00,
2013-07-18 02:32:00,71.0,71.0,-100.00,WNW,284,2.0,7.0,100,0.00,,,0.00,0.000000,,2013-07-18 06:32:00,
2013-07-18 02:43:00,71.0,71.0,-100.00,WNW,284,2.0,7.0,100,0.00,,,0.00,0.000000,,2013-07-18 06:43:00,
2013-07-18 02:52:00,71.0,71.0,-100.00,WNW,284,2.0,7.0,100,0.00,,,0.00,0.000000,,2013-07-18 06:52:00,
2013-07-18 03:01:00,71.0,71.0,-100.00,WNW,284,2.0,7.0,100,0.00,,,0.00,0.000000,,2013-07-18 07:01:00,
2013-07-18 07:43:00,71.0,71.0,-100.00,West,267,1.0,6.0,100,-99.99,,,0.00,53.000000,,2013-07-18 11:43:00,
2013-07-18 07:52:00,71.0,71.0,-100.00,West,267,1.0,6.0,100,-99.99,,,0.00,53.000000,,2013-07-18 11:52:00,
2013-07-18 08:02:00,71.0,71.0,-100.00,West,267,1.0,6.0,100,-99.99,,,0.00,53.000000,,2013-07-18 12:02:00,
2013-07-18 10:02:00,80.0,74.0,-100.00,NNW,335,3.0,6.0,83,0.00,,,0.00,402.000000,,2013-07-18 14:02:00,
2013-07-18 10:43:00,81.0,74.0,-100.00,NW,323,3.0,6.0,79,0.00,,,0.00,429.000000,,2013-07-18 14:43:00,
2013-07-18 10:53:00,81.0,74.0,-100.00,NW,323,3.0,6.0,79,0.00,,,0.00,429.000000,,2013-07-18 14:53:00,
2013-07-18 11:01:00,81.0,74.0,-100.00,NW,323,3.0,6.0,79,0.00,,,0.00,429.000000,,2013-07-18 15:01:00,
2013-07-18 11:43:00,83.0,73.0,-100.00,WSW,258,3.0,8.0,73,0.00,,,0.00,506.000000,,2013-07-18 15:43:00,
2013-07-18 11:53:00,83.0,73.0,-100.00,WSW,258,3.0,8.0,73,0.00,,,0.00,506.000000,,2013-07-18 15:53:00,
2013-07-18 12:01:00,83.0,73.0,-100.00,WSW,258,3.0,8.0,73,0.00,,,0.00,506.000000,,2013-07-18 16:01:00,
2013-07-18 12:32:00,85.0,73.0,-100.00,West,280,5.0,8.0,68,0.00,,,0.00,640.000000,,2013-07-18 16:32:00,
2013-07-18 12:42:00,85.0,73.0,-100.00,West,280,5.0,8.0,68,0.00,,,0.00,640.000000,,2013-07-18 16:42:00,
2013-07-18 12:52:00,85.0,73.0,-100.00,West,280,5.0,8.0,68,0.00,,,0.00,640.000000,,2013-07-18 16:52:00,
2013-07-18 13:02:00,85.0,73.0,-100.00,West,280,5.0,8.0,68,0.00,,,0.00,640.000000,,2013-07-18 17:02:00,
2013-07-18 13:33:00,87.0,70.0,-100.00,West,269,6.0,11.0,58,0.00,,,0.00,900.000000,,2013-07-18 17:33:00,
2013-07-18 13:43:00,87.0,70.0,-100.00,West,269,6.0,11.0,58,0.00,,,0.00,900.000000,,2013-07-18 17:43:00,
2013-07-18 13:52:00,87.0,70.0,-100.00,West,269,6.0,11.0,58,0.00,,,0.00,900.000000,,2013-07-18 17:52:00,
2013-07-18 14:01:00,87.0,70.0,-100.00,West,269,6.0,11.0,58,0.00,,,0.00,900.000000,,2013-07-18 18:01:00,
2013-07-18 14:33:00,88.0,71.0,-100.00,WNW,302,4.0,11.0,58,0.00,,,0.00,821.000000,,2013-07-18 18:33:00,
2013-07-18 14:43:00,88.0,71.0,-100.00,WNW,302,4.0,11.0,58,0.00,,,0.00,821.000000,,2013-07-18 18:43:00,
2013-07-18 14:52:00,88.0,71.0,-100.00,WNW,302,4.0,11.0,58,0.00,,,0.00,821.000000,,2013-07-18 18:52:00,
2013-07-18 15:02:00,88.0,71.0,-100.00,WNW,302,4.0,11.0,58,0.00,,,0.00,821.000000,,2013-07-18 19:02:00,
2013-07-18 15:43:00,87.0,71.0,-100.00,West,272,6.0,12.0,60,0.00,,,0.00,797.000000,,2013-07-18 19:43:00,
2013-07-18 15:53:00,87.0,71.0,-100.00,West,272,6.0,12.0,60,0.00,,,0.00,797.000000,,2013-07-18 19:53:00,
2013-07-18 16:02:00,87.0,71.0,-100.00,West,272,6.0,12.0,60,0.00,,,0.00,797.000000,,2013-07-18 20:02:00,
2013-07-18 16:32:00,86.0,69.0,-100.00,West,263,7.0,13.0,57,0.00,,,0.00,684.000000,,2013-07-18 20:32:00,
2013-07-18 16:43:00,86.0,69.0,-100.00,West,263,7.0,13.0,57,0.00,,,0.00,684.000000,,2013-07-18 20:43:00,
2013-07-18 16:52:00,86.0,69.0,-100.00,West,263,7.0,13.0,57,0.00,,,0.00,684.000000,,2013-07-18 20:52:00,
2013-07-18 17:01:00,86.0,69.0,-100.00,West,263,7.0,13.0,57,0.00,,,0.00,684.000000,,2013-07-18 21:01:00,
2013-07-18 17:43:00,87.0,70.0,-100.00,WNW,284,6.0,14.0,57,0.00,,,0.00,574.000000,,2013-07-18 21:43:00,
2013-07-18 17:52:00,87.0,70.0,-100.00,WNW,284,6.0,14.0,57,0.00,,,0.00,574.000000,,2013-07-18 21:52:00,
2013-07-18 18:01:00,87.0,70.0,-100.00,WNW,284,6.0,14.0,57,0.00,,,0.00,574.000000,,2013-07-18 22:01:00,
2013-07-18 18:32:00,80.0,70.0,-100.00,WSW,256,3.0,12.0,71,0.00,,,0.00,135.000000,,2013-07-18 22:32:00,
2013-07-18 18:43:00,80.0,70.0,-100.00,WSW,256,3.0,12.0,71,0.00,,,0.00,135.000000,,2013-07-18 22:43:00,
2013-07-18 18:53:00,80.0,70.0,-100.00,WSW,256,3.0,12.0,71,0.00,,,0.00,135.000000,,2013-07-18 22:53:00,
2013-07-18 19:02:00,80.0,70.0,-100.00,WSW,256,3.0,12.0,71,0.00,,,0.00,135.000000,,2013-07-18 23:02:00,
2013-07-18 19:42:00,78.0,71.0,-100.00,WNW,297,3.0,7.0,79,0.00,,,0.00,29.000000,,2013-07-18 23:42:00,
2013-07-18 19:52:00,78.0,71.0,-100.00,WNW,297,3.0,7.0,79,0.00,,,0.00,29.000000,,2013-07-18 23:52:00,
2013-07-18 20:01:00,78.0,71.0,-100.00,WNW,297,3.0,7.0,79,0.00,,,0.00,29.000000,,2013-07-19 00:01:00,
2013-07-18 20:32:00,74.0,69.0,-100.00,NNE,31,4.0,10.0,85,0.00,,,0.00,9.000000,,2013-07-19 00:32:00,
2013-07-18 20:43:00,74.0,69.0,-100.00,NNE,31,4.0,10.0,85,0.00,,,0.00,9.000000,,2013-07-19 00:43:00,
2013-07-18 20:52:00,74.0,69.0,-100.00,NNE,31,4.0,10.0,85,0.00,,,0.00,9.000000,,2013-07-19 00:52:00,
2013-07-18 21:01:00,74.0,69.0,-100.00,NNE,31,4.0,10.0,85,0.00,,,0.00,9.000000,,2013-07-19 01:01:00,
2013-07-18 21:42:00,72.0,68.0,-100.00,South,189,0.0,4.0,87,0.00,,,0.00,14.000000,,2013-07-19 01:42:00,
2013-07-18 21:52:00,72.0,68.0,-100.00,South,189,0.0,4.0,87,0.00,,,0.00,14.000000,,2013-07-19 01:52:00,
2013-07-18 22:02:00,72.0,68.0,-100.00,South,189,0.0,4.0,87,0.00,,,0.00,14.000000,,2013-07-19 02:02:00,
2013-07-18 22:32:00,72.0,68.0,-100.00,WNW,295,0.0,4.0,88,0.00,,,-99.99,0.000000,,2013-07-19 02:32:00,
2013-07-18 22:43:00,72.0,68.0,-100.00,WNW,295,0.0,4.0,88,0.00,,,-99.99,0.000000,,2013-07-19 02:43:00,
2013-07-18 22:52:00,72.0,68.0,-100.00,WNW,295,0.0,4.0,88,0.00,,,-99.99,0.000000,,2013-07-19 02:52:00,
2013-07-18 23:01:00,72.0,68.0,-100.00,WNW,295,0.0,4.0,88,0.00,,,-99.99,0.000000,,2013-07-19 03:01:00,
2013-07-18 23:43:00,71.0,69.0,-100.00,SW,214,2.0,5.0,95,0.00,,,0.00,0.000000,,2013-07-19 03:43:00,
2013-07-18 23:52:00,71.0,69.0,-100.00,SW,214,2.0,5.0,95,0.00,,,0.00,0.000000,,2013-07-19 03:52:00,